WA2GUG Weather Reports


time (UTC)temp
C
wind
direction
speed
KPH
gust
KPH
rain 1hr
cm
rain 24hr
cm
rain mn
cm
humidity
%
barometer
mb
20260506123422 13 232 0.0 0.0 0.00 0.00 0.00 99 1005.0
20260506122922 13 59 0.0 0.0 0.00 0.00 0.00 99 1005.0
20260506122422 13 30 0.0 0.0 0.00 0.00 0.00 99 1005.1
20260506121922 13 349 0.0 0.0 0.00 0.00 0.00 99 1006.0
20260506121422 13 104 0.0 0.0 0.00 0.00 0.00 99 1005.2
20260506120923 12 78 0.0 0.0 0.00 0.00 0.00 99 1005.2
20260506120422 12 76 0.0 0.0 0.00 0.00 0.00 99 1006.0
20260506115922 12 88 0.0 0.0 0.00 0.00 0.00 99 1005.2
20260506115422 12 102 0.0 0.0 0.00 0.00 0.00 99 1006.0
20260506114922 12 94 0.0 0.0 0.00 0.00 0.00 99 1006.0
20260506114422 12 90 0.0 0.0 0.00 0.00 0.00 99 1005.2
20260506113922 12 123 0.0 0.0 0.00 0.00 0.00 99 1005.1
20260506113422 12 129 0.0 0.0 0.00 0.00 0.00 99 1005.1
20260506112922 12 131 0.0 0.0 0.00 0.00 0.00 99 1005.1
20260506112422 12 290 0.0 0.0 0.00 0.00 0.00 99 1005.1
20260506111922 12 288 0.0 0.0 0.00 0.00 0.00 99 1005.0
20260506111422 12 135 0.0 0.0 0.00 0.00 0.00 99 1005.0
20260506110922 12 180 0.0 0.0 0.00 0.00 0.00 99 1005.0
20260506110422 11 175 0.0 0.0 0.00 0.00 0.00 99 1005.0
20260506105422 11 139 0.0 0.0 0.00 0.00 0.00 99 1005.2
20260506104922 11 301 0.0 0.0 0.00 0.00 0.00 99 1005.1
20260506103922 11 123 0.0 0.0 0.00 0.00 0.00 99 1005.0
20260506103422 11 183 0.0 0.0 0.00 0.00 0.00 99 1005.0
20260506102922 11 103 0.0 0.0 0.00 0.00 0.00 99 1005.0
20260506102422 11 133 0.0 0.0 0.00 0.00 0.00 99 1005.0
20260506101922 11 191 0.0 0.0 0.00 0.00 0.00 99 1005.0
20260506101422 11 142 0.0 0.0 0.00 0.00 0.00 99 1005.0
20260506100922 11 171 0.0 0.0 0.00 0.00 0.00 99 1005.0
20260506100422 10 104 0.0 0.0 0.00 0.00 0.00 99 1005.0
20260506095922 10 157 0.0 0.0 0.00 0.00 0.00 99 1005.0
20260506095422 10 135 0.0 0.0 0.00 0.00 0.00 99 1005.0
20260506094922 10 147 0.0 0.0 0.00 0.00 0.00 99 1005.0
20260506094422 10 146 0.0 0.0 0.00 0.00 0.00 99 1005.0
20260506093922 10 211 0.0 0.0 0.00 0.00 0.00 99 1005.0
20260506093422 10 184 0.0 0.0 0.00 0.00 0.00 99 1005.0
20260506092922 10 186 0.0 0.0 0.00 0.00 0.00 99 1005.0
20260506092422 10 180 0.0 0.0 0.00 0.00 0.00 99 1005.0
20260506091922 10 180 0.0 0.0 0.00 0.00 0.00 99 1005.0
20260506091422 10 180 0.0 0.0 0.00 0.00 0.00 99 1005.0
20260506090922 10 180 0.0 0.0 0.00 0.00 0.00 99 1005.0
20260506090422 10 152 0.0 0.0 0.00 0.00 0.00 99 1005.0
20260506085922 10 161 0.0 0.0 0.00 0.00 0.00 99 1005.0
20260506085422 10 125 0.0 0.0 0.00 0.00 0.00 99 1005.0
20260506084922 10 135 0.0 0.0 0.00 0.00 0.00 99 1005.0
20260506084422 10 151 0.0 0.0 0.00 0.00 0.00 99 1005.1
20260506083922 10 180 0.0 0.0 0.00 0.00 0.00 99 1006.0
20260506083422 11 177 0.0 0.0 0.00 0.00 0.00 99 1006.0
20260506082922 11 157 0.0 0.0 0.00 0.00 0.00 99 1006.0
20260506082422 11 157 0.0 0.0 0.00 0.00 0.00 99 1006.0
20260506081922 11 178 0.0 0.0 0.00 0.00 0.00 99 1006.0
20260506081422 11 180 0.0 0.0 0.00 0.00 0.00 99 1006.0
20260506080922 11 164 0.0 0.0 0.00 0.00 0.00 99 1006.0
20260506080422 11 135 0.0 0.0 0.00 0.00 0.00 99 1005.2
20260506073422 12 135 0.0 0.0 0.00 0.00 0.00 99 1006.0
20260506072922 12 135 0.0 0.0 0.00 0.00 0.00 99 1006.0
20260506072422 12 135 0.0 0.0 0.00 0.00 0.00 99 1006.0
20260506071922 12 168 0.0 0.0 0.00 0.00 0.00 99 1006.0
20260506071422 12 128 0.0 0.0 0.00 0.00 0.00 99 1006.0
20260506070922 12 147 0.0 0.0 0.00 0.00 0.00 99 1006.0
20260506070422 12 150 0.0 0.0 0.00 0.00 0.00 99 1006.0
20260506062422 12 137 0.0 0.0 0.00 0.00 0.00 99 1006.0
20260506061922 13 172 0.0 0.0 0.00 0.00 0.00 99 1006.0
20260506061422 13 257 0.0 0.0 0.00 0.00 0.00 99 1006.0
20260506060922 13 270 0.0 0.0 0.00 0.00 0.00 99 1006.0
20260506060422 13 270 0.0 0.0 0.00 0.00 0.00 99 1006.0
20260506050922 13 112 0.0 0.0 0.00 0.00 0.00 99 1006.0
20260506050422 13 178 0.0 0.0 0.00 0.00 0.00 99 1006.0
20260506044922 13 140 0.0 0.0 0.00 0.00 0.00 99 1006.0
20260506044422 13 138 0.0 0.0 0.00 0.00 0.00 99 1006.0
20260506043922 13 213 0.0 0.0 0.00 0.00 0.00 99 1006.0
20260506043422 14 137 0.0 0.0 0.00 0.00 0.00 99 1006.0
20260506042922 14 221 0.0 0.0 0.00 0.00 0.00 99 1006.0
20260506042422 14 264 0.0 0.0 0.00 0.00 0.00 99 1006.0
20260506041922 14 269 0.0 0.0 0.00 0.00 0.00 99 1006.0
20260506041422 14 135 0.0 0.0 0.00 0.00 0.00 99 1006.0
20260506040922 14 112 0.0 0.0 0.00 0.00 0.00 99 1006.0
20260506040422 14 166 0.0 0.0 0.00 0.00 0.00 99 1006.0
20260506035922 14 147 0.0 0.0 0.00 0.00 0.00 99 1006.0
20260506035422 14 270 0.0 0.0 0.00 0.00 0.00 99 1006.0
20260506034922 15 140 0.0 0.0 0.00 0.00 0.00 99 1006.0
20260506034422 15 123 0.0 0.0 0.00 0.00 0.00 99 1006.0
20260506033922 15 204 0.0 0.0 0.00 0.00 0.00 99 1006.0
20260506033422 15 158 0.0 0.0 0.00 0.00 0.00 99 1005.2
20260506032922 15 70 0.0 0.0 0.00 0.00 0.00 99 1006.0
20260506032422 15 70 0.0 0.0 0.00 0.00 0.00 99 1005.2
20260506031922 15 126 0.0 0.0 0.00 0.00 0.00 99 1005.2
20260506031422 15 133 0.0 0.0 0.00 0.00 0.00 99 1005.2
20260506030922 15 295 0.0 0.0 0.00 0.00 0.00 99 1006.0
20260506030422 15 180 0.0 0.0 0.00 0.00 0.00 99 1006.0
20260506025922 15 282 0.0 0.0 0.00 0.00 0.00 99 1006.0
20260506025422 15 225 0.0 0.0 0.00 0.00 0.00 99 1006.0
20260506024922 15 281 0.0 0.0 0.00 0.00 0.00 99 1005.2
20260506024422 15 60 0.0 0.0 0.00 0.00 0.00 99 1006.0
20260506023922 15 150 0.0 0.0 0.00 0.00 0.00 99 1006.0
20260506023422 15 152 0.0 0.0 0.00 0.00 0.00 99 1006.0
20260506022922 15 79 0.0 0.0 0.00 0.00 0.00 99 1006.0
20260506022422 15 120 0.0 0.0 0.00 0.00 0.00 99 1006.0
20260506021922 15 127 0.0 0.0 0.00 0.00 0.00 99 1005.1
20260506021422 15 275 0.0 0.0 0.00 0.00 0.00 99 1005.2
20260506020922 15 174 0.0 0.0 0.00 0.00 0.00 99 1005.1
20260506020422 16 142 0.0 0.0 0.00 0.00 0.00 99 1005.1
20260506015921 16 117 0.0 0.0 0.00 0.00 0.00 99 1005.0
20260506015422 16 168 0.0 0.0 0.00 0.00 0.00 99 1005.1
20260506014921 16 170 0.0 0.0 0.00 0.00 0.00 99 1005.2
20260506014421 17 30 0.0 0.0 0.00 0.00 0.00 99 1005.2
20260506013921 17 186 0.0 0.0 0.00 0.00 0.00 99 1006.0
20260506013422 17 187 0.0 0.0 0.00 0.00 0.00 99 1005.2
20260506012921 17 131 0.0 0.0 0.00 0.00 0.00 99 1005.1
20260506012421 17 172 0.0 0.0 0.00 0.00 0.00 99 1005.1
20260506011922 17 191 0.0 0.0 0.00 0.00 0.00 99 1005.0
20260506011421 17 21 0.0 0.0 0.00 0.00 0.00 99 1005.0
20260506010921 17 319 0.0 0.0 0.00 0.00 0.00 99 1005.0
20260506010421 17 154 0.0 0.0 0.00 0.00 0.00 99 1005.0
20260506005921 17 260 0.0 0.0 0.00 0.00 0.00 99 1005.0
20260506005421 17 228 0.0 0.0 0.00 0.00 0.00 99 1005.0
20260506004921 17 50 0.0 0.0 0.00 0.00 0.00 99 1005.0
20260506004421 18 101 0.0 0.0 0.00 0.00 0.00 99 1005.0
20260506003921 18 136 0.0 0.0 0.00 0.00 0.00 99 1005.0
20260506003422 18 130 0.0 0.0 0.00 0.00 0.00 99 1005.0
20260506002921 18 157 0.0 0.0 0.00 0.00 0.00 99 1005.0
20260506002421 18 84 0.0 0.0 0.00 0.00 0.00 99 1005.0
20260506001921 18 87 0.0 0.0 0.00 0.00 0.00 99 1005.0
20260506001421 18 76 0.0 0.0 0.00 0.00 0.00 99 1005.0
20260506000921 18 95 0.0 0.0 0.00 0.00 0.00 99 1005.0
20260506000423 19 153 0.0 0.0 0.00 0.00 0.00 99 1005.0
20260505235921 19 190 0.0 0.0 0.00 0.00 0.00 99 1005.0
20260505235421 20 165 0.0 0.0 0.00 0.00 0.00 99 1005.0
20260505234921 20 161 0.0 0.0 0.00 0.00 0.00 99 1005.0
20260505234421 20 172 0.0 0.0 0.00 0.00 0.00 99 1005.0
20260505233921 20 92 0.0 0.0 0.00 0.00 0.00 99 1005.0
20260505233422 20 102 0.0 0.0 0.00 0.00 0.00 99 1005.0
20260505232922 20 177 0.0 0.0 0.00 0.00 0.00 99 1005.0
20260505232421 20 78 0.0 0.0 0.00 0.00 0.00 99 1005.0
20260505231921 20 327 0.0 0.0 0.00 0.00 0.00 99 1005.0
20260505231421 20 259 0.0 0.0 0.00 0.00 0.00 99 1005.0
20260505230921 20 136 0.0 0.0 0.00 0.00 0.00 99 1005.0
20260505230421 20 135 0.0 0.0 0.00 0.00 0.00 99 1005.0
20260505225921 20 161 0.0 0.0 0.00 0.00 0.00 99 1004.2
20260505225421 20 134 0.0 0.0 0.00 0.00 0.00 99 1004.2
20260505224921 20 83 0.0 0.0 0.00 0.00 0.00 99 1004.2
20260505224421 20 77 0.0 0.0 0.00 0.00 0.00 99 1004.1
20260505223921 20 96 0.0 0.0 0.00 0.00 0.00 99 1004.1
20260505223421 20 90 0.0 0.0 0.00 0.00 0.00 99 1004.1
20260505222921 20 182 0.0 0.0 0.00 0.00 0.00 99 1004.1
20260505222421 20 90 0.0 0.0 0.00 0.00 0.00 99 1005.0
20260505221921 21 49 0.0 1.6 0.00 0.00 0.00 99 1005.0
20260505221421 21 75 0.0 11.3 0.00 0.00 0.00 99 1005.0
20260505220921 23 73 1.6 12.9 0.00 0.00 0.00 99 1004.2
20260505220421 24 44 0.0 14.5 0.00 0.00 0.00 99 1004.1
20260505215921 25 22 1.6 14.5 0.00 0.00 0.00 99 1004.0
20260505215421 26 3 0.0 8.0 0.00 0.00 0.00 99 1004.0
20260505214921 26 303 0.0 3.2 0.00 0.00 0.00 99 1004.0
20260505214421 26 5 0.0 3.2 0.00 0.00 0.00 99 1004.0
20260505213921 26 280 0.0 1.6 0.00 0.00 0.00 99 1003.2
20260505213421 27 265 0.0 9.7 0.00 0.00 0.00 99 1003.1
20260505212921 27 262 0.0 9.7 0.00 0.00 0.00 99 1003.1
20260505212421 27 319 0.0 4.8 0.00 0.00 0.00 99 1003.0
20260505211921 27 267 0.0 0.0 0.00 0.00 0.00 99 1003.0
20260505211421 28 313 0.0 0.0 0.00 0.00 0.00 99 1003.0
20260505210921 28 267 0.0 0.0 0.00 0.00 0.00 99 1003.0
20260505210423 28 235 0.0 6.4 0.00 0.00 0.00 99 1003.0
20260505205921 28 277 0.0 6.4 0.00 0.00 0.00 99 1003.0
20260505205421 28 274 0.0 6.4 0.00 0.00 0.00 99 1003.0
20260505204921 29 263 0.0 4.8 0.00 0.00 0.00 99 1003.0
20260505204421 28 272 0.0 6.4 0.00 0.00 0.00 99 1003.0
20260505203921 28 283 0.0 12.9 0.00 0.00 0.00 99 1003.0
20260505203421 28 285 0.0 12.9 0.00 0.00 0.00 99 1003.0
20260505202921 28 283 0.0 1.6 0.00 0.00 0.00 99 1003.0
20260505202421 30 295 0.0 8.0 0.00 0.00 0.00 99 1003.0
20260505201921 30 232 0.0 8.0 0.00 0.00 0.00 99 1003.0
20260505201421 31 312 1.6 8.0 0.00 0.00 0.00 99 1003.0
20260505200921 31 285 0.0 6.4 0.00 0.00 0.00 99 1003.0
20260505200421 32 9 0.0 8.0 0.00 0.00 0.00 99 1003.0
20260505195921 33 320 1.6 8.0 0.00 0.00 0.00 99 1003.0
20260505195421 33 305 0.0 0.0 0.00 0.00 0.00 99 1003.0
20260505194921 33 239 0.0 4.8 0.00 0.00 0.00 99 1003.0
20260505194421 33 324 0.0 4.8 0.00 0.00 0.00 99 1003.0
20260505193921 33 256 0.0 8.0 0.00 0.00 0.00 99 1003.0
20260505193421 32 359 0.0 8.0 0.00 0.00 0.00 99 1003.0
20260505192921 32 270 0.0 14.5 0.00 0.00 0.00 99 1003.0
20260505192421 33 5 3.2 14.5 0.00 0.00 0.00 99 1003.0
20260505191921 33 271 0.0 16.1 0.00 0.00 0.00 99 1003.0
20260505191421 32 265 1.6 22.5 0.00 0.00 0.00 99 1003.0
20260505190921 33 12 4.8 22.5 0.00 0.00 0.00 99 1003.0
20260505190421 33 323 0.0 8.0 0.00 0.00 0.00 99 1003.1
20260505185921 32 320 0.0 6.4 0.00 0.00 0.00 99 1003.2
20260505185421 32 273 0.0 12.9 0.00 0.00 0.00 99 1003.1
20260505184921 32 291 0.0 12.9 0.00 0.00 0.00 99 1003.1
20260505184421 32 268 0.0 9.7 0.00 0.00 0.00 99 1003.2
20260505183921 33 272 1.6 9.7 0.00 0.00 0.00 99 1003.2
20260505183421 35 267 0.0 8.0 0.00 0.00 0.00 99 1003.1
20260505182921 34 315 0.0 8.0 0.00 0.00 0.00 99 1003.2
20260505182421 33 278 1.6 8.0 0.00 0.00 0.00 99 1004.0
20260505181921 33 234 0.0 8.0 0.00 0.00 0.00 99 1004.0
20260505180921 33 278 0.0 16.1 0.00 0.00 0.00 99 1004.0
20260505180421 33 274 0.0 8.0 0.00 0.00 0.00 99 1004.0
20260505175921 33 264 0.0 6.4 0.00 0.00 0.00 99 1004.0
20260505175421 33 353 0.0 16.1 0.00 0.00 0.00 99 1004.0
20260505174921 33 358 1.6 16.1 0.00 0.00 0.00 99 1004.0
20260505174421 34 356 0.0 8.0 0.00 0.00 0.00 99 1004.0
20260505173921 33 312 0.0 9.7 0.00 0.00 0.00 99 1004.0
20260505173421 33 319 1.6 9.7 0.00 0.00 0.00 99 1004.0
20260505172921 33 320 0.0 11.3 0.00 0.00 0.00 99 1004.0
20260505172421 33 283 1.6 11.3 0.00 0.00 0.00 99 1004.0
20260505171921 33 0 1.6 6.4 0.00 0.00 0.00 99 1004.0
20260505171421 33 282 0.0 8.0 0.00 0.00 0.00 99 1004.0
20260505170921 33 310 0.0 9.7 0.00 0.00 0.00 99 1004.0
20260505170421 33 285 0.0 9.7 0.00 0.00 0.00 99 1004.0
20260505165921 32 312 0.0 9.7 0.00 0.00 0.00 99 1004.0
20260505165421 32 317 0.0 9.7 0.00 0.00 0.00 99 1004.0
20260505164921 32 276 0.0 3.2 0.00 0.00 0.00 99 1004.0
20260505164421 32 270 0.0 9.7 0.00 0.00 0.00 99 1004.0
20260505163921 31 310 0.0 9.7 0.00 0.00 0.00 99 1004.0
20260505163421 32 270 0.0 9.7 0.00 0.00 0.00 99 1004.0
20260505162921 31 267 0.0 8.0 0.00 0.00 0.00 99 1004.0
20260505162421 32 226 0.0 8.0 0.00 0.00 0.00 99 1004.0
20260505161921 32 297 0.0 8.0 0.00 0.00 0.00 99 1004.0
20260505161421 32 311 0.0 8.0 0.00 0.00 0.00 99 1004.0
20260505160921 32 321 0.0 6.4 0.00 0.00 0.00 99 1004.0
20260505160421 32 1 0.0 6.4 0.00 0.00 0.00 99 1004.1
20260505152921 29 173 0.0 0.0 0.00 0.00 0.00 99 1005.0
20260505152421 28 235 0.0 3.2 0.00 0.00 0.00 99 1004.2
20260505151921 28 225 0.0 3.2 0.00 0.00 0.00 99 1005.0
20260505151421 28 230 0.0 0.0 0.00 0.00 0.00 99 1005.0
20260505150921 27 228 0.0 0.0 0.00 0.00 0.00 99 1005.0
20260505150421 27 227 0.0 0.0 0.00 0.00 0.00 99 1005.0
20260505140421 28 209 0.0 0.0 0.00 0.00 0.00 99 1005.1
20260505124921 23 255 0.0 0.0 0.00 0.00 0.00 99 1006.0
20260505124421 23 257 0.0 0.0 0.00 0.00 0.00 99 1005.2
20260505123921 23 226 0.0 0.0 0.00 0.00 0.00 99 1005.2